Regional Weather Roundup
Issued by NWS

Home | Current Version | Previous Version | Graphics & Text | Print | Product List | Glossary On
Versions: 1 2 3 4 5 6 7 8 9 10 11 12 13 14 15 16 17 18 19 20 21 22 23 24 25 26 27 28 29 30 31 32 33 34 35 36 37 38 39 40 41 42 43 44 45 46 47 48 49 50
000
ASUS45 KCYS 220010
RWRWY

WYOMING REGIONAL WEATHER ROUNDUP
NATIONAL WEATHER SERVICE CHEYENNE WY
600 PM MDT THU AUG 21 2014

NOTE:  "FAIR" INDICATES FEW OR NO CLOUDS BELOW 12,000 FEET
WITH NO SIGNIFICANT WEATHER AND/OR OBSTRUCTIONS TO VISIBILITY.

WYZ001-220100-
YELLOWSTONE NATIONAL PARK

CITY           SKY/WX    TMP DP  RH WIND       PRES   REMARKS
LK YELLOWSTONE   N/A     54  42  64 CALM      30.24S
6HR MIN TEMP:  48; 6HR MAX TEMP:  56; 6HR PCP:  0.02;

W YELLOWSTONE  NOT AVBL

$$
WYZ002>013-054>058-071-098>099-220100-
NORTHERN WYOMING

CITY           SKY/WX    TMP DP  RH WIND       PRES   REMARKS
JACKSON        MOSUNNY   64  48  55 CALM      30.16F
CODY           PTSUNNY   64  54  68 N13       30.08R
GREYBULL       PTSUNNY   75  47  36 VRB3      30.01R
6HR MIN TEMP:  66; 6HR MAX TEMP:  75; 6HR PCP: TRACE;

WORLAND        CLOUDY    70  53  54 N9        30.02R
6HR MIN TEMP:  68; 6HR MAX TEMP:  76;

SHERIDAN       RAIN      63  58  83 NW3       30.05S
6HR MIN TEMP:  62; 6HR MAX TEMP:  76; 6HR PCP:  0.04;

BUFFALO        CLOUDY    60  56  86 NW15G29   30.07R
6HR MIN TEMP:  60; 6HR MAX TEMP:  73; 6HR PCP:  0.02;

GILLETTE       PTSUNNY   78  49  35 N7        29.98S
6HR MIN TEMP:  72; 6HR MAX TEMP:  82;

HULETT         FAIR      77  52  41 MISG      30.00
NEWCASTLE      FAIR      84  39  20 MISG      29.96

$$
WYZ014>020-022>026-101>103-220100-
CENTRAL WYOMING

CITY           SKY/WX    TMP DP  RH WIND       PRES   REMARKS
BIG PINEY      PTSUNNY   63  43  48 CALM      30.22R
6HR MIN TEMP:  58; 6HR MAX TEMP:  66; 6HR PCP: TRACE;

PINEDALE       MOCLDY    61  41  48 NW6       30.23R
DUBOIS         FAIR      61  37  41 N13G18    30.19R
LANDER         CLOUDY    72  42  34 NW8       30.08R
6HR MIN TEMP:  71; 6HR MAX TEMP:  79; 6HR PCP: TRACE;

RIVERTON       CLOUDY    72  41  32 NW7       30.08R
6HR MIN TEMP:  72; 6HR MAX TEMP:  78;

CASPER         PTSUNNY   78  38  23 SW17G28   30.05R
6HR MIN TEMP:  74; 6HR MAX TEMP:  84;

DOUGLAS        PTSUNNY   80  38  22 SW10      30.04S
6HR MIN TEMP:  79; 6HR MAX TEMP:  86;


$$
WYZ021-027>030-104>119-220100-
SOUTHERN WYOMING

CITY           SKY/WX    TMP DP  RH WIND       PRES   REMARKS
EVANSTON       MOSUNNY   69  40  34 W13       30.21S
6HR MIN TEMP:  61; 6HR MAX TEMP:  71; 6HR PCP: TRACE;

KEMMERER       PTCLDY    66  41  39 W14       30.23S
FORT BRIDGER   FAIR      67  46  46 SW7       30.24S
ROCK SPRINGS   CLOUDY    60  51  72 SE10      30.23S
6HR MIN TEMP:  55; 6HR MAX TEMP:  72; 6HR PCP: TRACE;

DIXON          MOCLDY    65  48  53 N16G22    30.25R
RAWLINS        RAIN      53  49  86 W20G31    30.26R FOG
6HR MIN TEMP:  55; 6HR MAX TEMP:  73; 6HR PCP:  0.08;

SARATOGA       MOCLDY    64  45  48 MISG      30.24R
LARAMIE        PTSUNNY   71  39  31 SW6       30.22R
6HR MIN TEMP:  68; 6HR MAX TEMP:  73;

CHEYENNE       CLOUDY    72  46  39 S8        30.16R
6HR MIN TEMP:  72; 6HR MAX TEMP:  81; 6HR PCP: TRACE;

TORRINGTON     PTSUNNY   88  42  20 NW5       29.98R
6HR MIN TEMP:  82; 6HR MAX TEMP:  89;

PINE BLUFFS    FAIR      77  45  31 N5        30.10S

$$


USA.gov is the U.S. government's official web portal to all federal, state and local government web resources and services.